Theta_e
309 310 311 311 313 315 317 318 316 315 314 312 312 312 311 312 312 313 313 310 310 313 314 312 312 312 311 324 338 341 340 341 339 340 340 340 340 340 339 338 338 338 337 336 335 334 333 334 334 334 334 335 335 335 335 336 338 339 339 340 340 340 340 340 339 339 337 336 335 334 335 332 330 330 330 330 330 330 330 330 330 330 330 330 330 330
310 310 312 316 318 321 322 320 320 317 315 313 312 312 312 312 313 313 312 310 310 313 314 311 310 312 314 324 337 340 340 341 340 339 340 340 340 339 338 337 337 337 335 334 334 334 333 333 333 333 334 334 334 333 334 335 337 339 339 340 340 339 340 339 339 337 336 335 334 334 333 330 328 329 329 329 328 329 329 329 329 329 329 329 330 329
311 311 315 318 317 320 319 316 318 318 317 314 312 312 313 311 311 313 312 312 311 312 313 310 309 313 318 325 336 340 340 340 340 339 339 340 340 339 338 337 337 337 336 334 333 334 334 333 333 333 333 333 333 333 333 334 335 337 338 339 340 339 339 338 337 335 334 333 333 332 331 328 327 328 329 328 328 328 329 328 327 327 327 328 328 327
311 312 314 315 315 318 318 315 317 318 316 315 313 313 313 312 310 311 313 315 314 313 314 311 311 317 323 330 336 338 337 336 337 339 339 339 339 339 337 337 337 337 337 335 333 333 333 334 333 333 333 332 333 333 333 333 334 335 336 337 338 339 338 337 336 334 333 332 332 331 329 327 326 327 328 328 328 328 327 325 325 325 326 327 327 325
310 311 310 312 314 316 318 317 316 315 314 315 316 314 313 314 312 311 314 316 316 316 316 314 312 316 322 330 336 337 333 332 334 337 339 338 337 338 337 337 337 337 336 336 334 332 333 334 333 333 332 331 332 332 332 332 333 334 334 335 336 337 338 336 335 334 332 332 332 330 328 327 327 327 328 327 327 326 325 323 323 322 324 326 326 324
310 311 310 312 313 313 317 317 315 315 313 315 317 316 315 315 315 315 316 317 315 315 316 315 311 313 317 321 330 336 336 334 332 333 337 338 336 336 337 337 336 335 335 335 334 332 333 334 333 333 332 331 331 331 332 332 333 334 334 333 334 335 337 336 334 333 331 331 330 328 327 328 328 327 327 327 325 324 323 322 321 320 321 323 325 324
310 309 310 315 315 313 313 314 315 316 313 313 317 318 315 314 317 319 318 315 312 313 316 315 311 312 314 315 320 327 333 335 332 332 334 335 337 336 335 336 335 335 334 333 333 331 332 333 333 333 332 331 331 331 331 332 333 334 333 332 333 334 335 335 334 332 330 330 330 327 326 326 327 327 325 324 323 322 322 320 319 320 320 322 324 324
312 311 311 316 317 313 311 313 316 315 312 315 319 316 312 312 316 320 319 315 314 315 316 316 314 312 313 314 315 316 325 334 333 333 332 332 335 335 335 335 333 334 334 332 331 330 331 333 333 333 332 331 331 331 330 331 333 333 332 332 332 333 334 334 334 331 330 329 329 327 325 325 325 325 323 322 321 321 320 319 319 320 320 321 322 322
315 315 315 317 316 312 312 315 316 313 313 315 315 312 311 313 317 321 318 315 317 316 313 315 316 313 313 315 314 314 320 326 329 331 331 331 333 333 335 334 333 333 333 333 331 330 332 333 333 333 332 331 330 330 330 331 332 333 332 331 331 331 332 332 332 330 330 329 327 326 325 325 325 324 322 322 321 320 319 319 319 320 320 320 320 320
314 313 314 314 313 313 315 315 312 313 315 313 310 311 311 313 317 319 316 315 317 315 311 316 317 313 313 315 315 315 317 319 320 321 322 324 328 332 333 333 332 332 332 332 330 330 331 332 332 332 331 330 329 329 329 330 331 332 331 330 329 329 330 330 330 329 329 328 327 325 324 324 325 324 322 321 320 319 318 318 318 319 319 319 319 319
312 311 312 312 311 312 312 310 308 311 312 310 311 312 312 314 317 318 317 316 315 314 313 316 317 315 313 314 315 315 316 315 316 317 317 317 320 326 331 331 331 330 331 331 329 329 330 331 331 331 331 330 329 329 329 329 330 330 329 328 327 328 328 328 328 328 328 326 325 325 324 324 324 323 322 321 320 319 318 317 317 318 318 318 319 318
312 310 311 312 312 310 309 308 307 307 308 310 313 313 312 314 316 315 316 315 313 314 314 314 317 317 313 314 316 316 315 314 314 316 317 316 315 318 324 328 329 329 330 330 328 327 328 329 330 331 331 330 329 329 329 328 328 328 328 326 326 326 326 326 325 324 324 324 324 324 323 323 323 323 322 320 319 318 318 318 317 317 317 317 318 318
314 312 311 311 311 310 309 310 308 307 308 310 313 314 312 313 314 313 314 314 314 315 315 314 316 316 313 314 315 317 318 317 317 318 318 318 317 316 317 323 328 329 329 329 328 327 327 329 331 331 332 331 330 329 329 329 328 327 327 326 325 324 324 323 322 322 322 322 323 323 323 323 322 322 320 319 318 318 318 318 317 317 317 317 317 318
314 315 312 310 311 311 311 312 311 311 311 311 312 313 313 312 313 313 314 313 314 316 314 313 315 314 313 315 316 317 319 319 320 321 321 321 320 318 314 319 326 327 327 327 326 326 326 328 331 332 332 332 331 330 329 329 328 328 327 326 325 324 321 320 320 320 321 321 322 322 323 323 322 321 319 318 317 317 318 318 318 317 317 317 317 318
314 314 313 312 311 310 311 312 312 312 311 310 311 311 312 313 313 313 313 314 314 316 315 313 314 315 315 316 316 316 317 319 321 322 322 322 321 320 317 320 326 326 325 325 325 326 326 328 329 329 328 328 328 329 329 329 328 328 327 326 325 321 319 320 320 321 321 321 322 322 323 322 322 321 319 318 317 314 315 318 318 318 316 315 315 316
312 313 314 312 309 309 310 311 310 310 311 308 308 310 312 313 315 313 312 314 315 316 317 314 314 314 314 314 312 313 316 320 323 322 323 324 323 323 323 324 325 324 324 325 325 325 325 327 327 325 324 323 323 325 327 328 328 328 328 326 321 318 319 321 322 321 321 322 321 321 323 322 322 321 318 318 318 314 315 317 318 317 314 312 313 314
311 314 314 310 308 308 308 308 309 309 311 309 308 311 310 311 317 316 311 311 313 316 315 313 314 314 314 313 312 315 319 322 323 323 323 324 325 325 325 325 324 324 325 325 325 325 325 327 326 324 323 322 322 323 324 327 327 328 328 324 318 319 322 323 322 321 321 322 320 318 322 321 320 319 316 317 318 316 315 317 317 317 312 310 312 313
312 315 315 311 309 308 306 307 308 307 309 310 310 311 309 309 314 316 313 312 313 315 314 312 314 315 315 315 314 316 318 319 322 324 324 325 326 326 325 325 324 324 325 325 325 325 325 325 324 323 322 322 322 323 323 326 326 328 328 323 318 322 325 323 321 321 321 322 321 319 321 320 318 319 318 318 318 316 315 314 315 316 312 309 310 311
313 315 315 311 309 309 308 308 309 307 306 308 310 309 310 311 313 313 314 315 313 314 314 312 313 314 314 316 315 316 316 316 320 324 325 325 326 326 325 326 325 325 326 325 324 324 324 323 322 322 322 322 323 323 324 325 326 327 328 324 321 322 324 322 320 321 320 321 322 322 322 319 318 320 319 319 318 317 316 312 313 316 314 309 308 309
315 316 315 311 308 308 309 310 311 310 307 307 309 308 310 313 314 313 314 315 315 313 312 313 314 314 314 314 314 315 316 315 317 323 326 324 324 325 325 325 325 324 324 324 323 323 323 322 322 322 323 323 323 324 324 325 326 326 327 326 324 322 322 321 321 321 320 320 321 322 321 319 319 320 319 319 318 318 316 311 313 317 315 311 310 309
316 314 315 314 310 308 310 310 309 310 310 310 311 311 312 312 311 312 312 311 312 313 313 314 315 315 314 312 312 314 315 315 316 321 324 323 323 323 323 323 323 323 323 323 323 322 322 322 321 321 323 323 323 323 324 324 325 325 326 326 325 323 322 321 320 320 320 320 320 321 320 319 319 319 319 319 318 318 317 313 314 317 315 313 312 311
316 313 317 319 313 310 309 307 306 307 307 309 312 312 312 312 312 313 312 310 311 312 313 313 314 316 313 311 311 311 313 315 314 318 323 322 322 322 321 321 321 322 322 322 320 320 320 320 320 320 321 322 322 323 323 324 324 325 325 325 325 324 322 322 321 320 319 319 320 320 319 319 319 319 319 318 318 319 318 314 314 317 316 315 313 312
320 319 318 315 310 309 308 306 306 305 305 307 310 309 310 314 315 315 314 313 312 311 311 313 314 315 312 310 310 311 313 315 314 318 322 321 320 321 320 320 320 320 320 318 318 319 319 319 318 318 319 320 321 321 322 324 324 324 325 324 324 323 323 323 321 320 320 319 319 319 319 318 318 318 318 317 317 318 318 315 314 316 317 316 314 313
321 322 316 310 308 309 308 307 307 306 306 308 309 307 308 312 315 316 316 316 315 312 312 313 313 314 312 309 310 311 313 315 315 318 321 320 320 320 319 319 319 319 318 316 317 317 317 317 316 316 316 318 320 320 320 322 322 323 324 324 324 323 323 322 322 321 319 319 319 319 319 318 318 318 317 316 316 318 319 317 314 314 317 317 315 313
318 318 315 311 310 309 309 309 309 307 308 309 308 307 306 309 314 316 314 314 315 314 313 313 314 314 312 309 309 311 312 314 314 314 316 317 318 317 317 317 316 315 314 314 314 314 313 313 312 313 313 315 317 318 319 320 320 321 322 323 323 323 323 323 322 322 320 319 319 318 319 318 318 318 317 316 317 318 319 317 313 314 317 318 316 315
314 314 315 313 312 311 310 310 310 309 309 308 307 308 308 308 313 315 313 313 314 313 312 312 314 314 311 310 310 310 312 313 313 312 312 313 313 314 314 313 312 311 310 310 311 310 310 310 309 309 309 311 312 314 317 318 319 320 321 322 323 323 323 323 323 323 322 321 320 319 319 319 318 318 317 318 318 319 319 317 314 314 317 318 317 316
316 313 311 311 312 311 309 308 307 308 310 309 308 310 310 310 312 314 313 313 314 313 312 313 314 315 312 310 309 310 311 312 312 311 311 311 311 311 311 310 309 309 308 308 309 309 308 308 308 308 308 308 308 309 311 314 317 319 320 322 323 323 323 323 323 323 323 322 322 321 320 319 319 318 318 318 318 318 318 318 316 316 317 317 317 317
323 316 312 311 309 307 307 307 307 307 308 309 310 312 312 312 315 317 314 314 314 313 313 313 314 315 312 308 309 310 310 311 310 310 310 310 310 310 309 309 308 308 307 307 307 307 307 307 308 309 308 307 307 307 307 308 313 317 319 320 321 321 322 322 322 322 322 322 322 322 321 320 320 319 318 318 318 318 319 319 318 318 318 318 318 318
324 316 313 312 309 307 308 308 308 309 308 308 309 312 313 313 315 316 313 311 313 313 314 313 312 313 310 307 308 307 307 309 308 308 308 308 308 308 308 307 307 307 307 306 306 306 306 306 308 308 308 308 307 307 306 306 307 311 315 318 320 321 321 321 321 321 321 321 321 321 321 320 320 319 319 319 319 319 319 319 320 319 319 318 318 318
318 314 312 313 313 312 310 309 310 310 309 309 308 307 310 311 311 310 309 308 310 312 312 311 311 309 307 306 305 304 305 305 305 305 306 305 305 305 305 305 305 306 306 306 306 305 305 306 307 308 307 308 307 307 307 306 305 306 308 312 315 319 320 320 321 320 321 321 321 320 320 319 319 319 319 319 319 320 319 319 319 319 318 318 318 318
316 314 312 314 315 313 311 311 313 314 313 312 310 307 308 310 310 309 309 309 310 310 309 310 311 308 305 303 303 302 302 302 302 303 302 303 303 303 302 302 302 303 304 304 305 304 304 305 306 306 306 307 307 307 307 307 307 306 305 306 308 313 317 319 320 320 320 320 320 320 319 319 318 319 319 319 319 320 320 319 319 319 318 318 318 318
316 312 310 313 314 312 310 311 313 315 313 313 313 312 311 312 311 309 307 307 309 310 310 312 312 308 304 302 301 301 301 301 301 300 300 300 300 301 301 300 301 301 301 302 302 303 302 303 304 304 305 305 305 306 306 307 307 306 305 306 305 307 310 313 316 318 319 320 320 320 319 319 319 319 319 319 320 320 320 319 319 319 318 318 318 318
313 310 310 312 314 311 309 309 311 312 312 313 312 310 309 308 307 306 304 304 306 308 311 313 310 305 302 301 301 301 300 300 300 300 300 300 299 299 299 299 299 299 300 300 300 300 301 302 303 303 303 304 303 303 303 304 305 305 305 305 306 305 306 306 308 311 314 316 319 320 320 320 319 319 319 319 319 319 319 319 319 319 318 318 318 318
310 310 310 310 312 310 307 309 311 311 312 311 305 303 304 306 305 306 304 302 303 304 306 307 305 302 302 301 301 300 299 299 299 299 299 299 299 300 299 299 299 299 300 300 299 300 301 302 302 302 301 301 301 300 300 301 302 304 304 305 305 306 306 305 305 306 307 310 313 316 318 319 319 319 319 319 319 319 319 319 319 319 319 319 318 318
309 309 307 306 307 308 306 308 311 312 310 306 302 302 303 304 303 303 302 301 302 303 303 303 302 301 301 300 299 299 298 298 298 298 298 298 299 300 299 299 299 299 299 299 299 300 300 300 300 301 300 299 298 298 299 299 299 301 303 304 303 304 305 306 306 306 306 306 308 309 312 314 316 317 318 318 319 318 319 319 318 319 319 318 318 318
311 309 306 304 304 306 307 307 309 308 305 302 301 302 302 302 303 304 303 301 300 301 302 303 301 300 299 299 298 298 297 297 298 297 297 298 298 299 299 298 298 298 298 298 298 299 299 298 299 299 299 298 298 298 298 298 298 299 301 302 302 302 304 305 306 306 306 306 306 306 307 308 311 313 315 317 318 318 318 318 318 318 318 318 318 318
310 309 307 306 304 304 306 306 305 305 304 303 302 301 302 303 303 304 304 301 299 300 301 301 300 300 299 298 298 298 298 299 299 298 297 297 297 297 297 298 298 298 298 298 298 298 298 298 298 298 298 298 299 298 298 298 298 298 299 300 300 301 302 303 304 304 304 304 305 305 306 307 308 309 312 315 317 318 318 317 317 317 317 317 317 317
307 307 308 308 303 301 305 307 305 307 308 306 303 301 301 301 300 302 303 301 299 298 299 300 300 300 299 299 299 299 300 302 300 298 297 296 296 297 297 298 298 298 298 298 298 298 298 298 298 298 298 298 298 298 298 298 298 299 299 299 299 299 301 302 303 303 303 303 304 304 305 306 307 308 310 312 315 317 316 313 312 313 314 315 317 317
306 305 306 307 303 301 305 308 308 308 306 303 301 300 299 299 299 301 305 303 299 296 297 298 299 299 299 299 299 300 302 304 302 298 296 296 296 297 297 297 298 297 297 297 297 297 297 297 297 298 298 298 298 298 298 298 298 299 300 299 299 299 300 301 301 301 302 303 304 304 304 305 305 306 308 309 312 314 313 310 309 310 311 313 315 315
305 304 305 307 305 303 305 306 305 304 302 300 300 300 298 298 299 303 307 305 298 296 297 298 298 298 298 298 299 300 301 302 300 297 296 296 297 297 297 297 297 296 296 296 296 296 296 296 296 297 297 297 297 297 298 298 298 298 299 299 299 300 300 300 299 299 299 301 302 302 303 303 304 305 306 307 309 311 310 308 308 309 310 312 314 314
303 302 303 305 305 304 305 306 304 302 300 299 299 299 298 298 302 306 306 301 297 296 297 297 298 298 298 298 299 299 298 298 297 296 296 296 297 297 296 296 295 295 295 295 295 294 295 295 295 295 295 295 295 296 296 297 297 298 298 298 299 299 300 299 299 298 298 299 299 300 300 301 302 303 305 305 307 308 308 308 308 308 308 309 311 312
302 301 301 301 302 301 302 304 304 302 299 298 298 298 298 302 305 303 299 296 297 297 297 297 297 297 297 298 298 298 298 297 296 296 296 296 296 296 295 295 295 295 294 294 294 293 293 294 294 294 294 293 293 294 294 295 296 297 297 298 299 299 298 298 298 298 298 298 299 299 300 300 300 302 303 304 306 307 307 307 307 307 306 307 309 310
300 302 302 300 299 299 301 303 305 303 299 297 298 299 300 302 301 298 295 296 297 297 297 297 297 297 297 298 298 297 297 297 296 296 295 295 295 295 294 294 294 294 293 293 293 292 292 293 293 293 292 292 292 292 292 293 294 295 296 297 298 298 298 298 298 298 298 298 298 299 299 300 300 300 302 303 305 306 307 306 307 307 306 306 307 307
300 301 302 300 300 301 303 303 302 300 298 297 299 299 299 299 297 297 298 298 297 297 298 298 297 297 297 298 298 297 297 296 295 295 294 294 294 294 294 293 292 292 292 292 292 291 291 292 292 291 291 291 291 291 291 292 293 294 294 295 296 296 297 297 297 297 297 298 298 299 299 299 300 300 301 302 303 304 305 306 306 306 307 306 306 305
300 300 301 300 299 300 301 300 298 297 298 298 299 298 298 298 298 298 299 298 297 297 298 298 298 297 296 297 297 297 296 295 294 293 292 292 292 292 292 292 291 291 291 291 291 291 290 291 291 291 291 291 291 291 291 291 291 292 293 293 293 294 294 295 296 296 297 298 298 299 299 299 299 300 300 301 302 303 304 305 306 306 306 306 306 305
298 297 299 300 298 298 298 298 298 298 298 299 299 299 298 298 299 299 299 298 299 298 297 297 297 296 295 296 296 296 294 293 292 292 291 291 292 292 292 291 291 291 291 291 291 290 290 290 290 290 290 291 290 290 290 290 290 291 291 291 291 292 292 293 294 295 296 297 298 298 299 299 299 300 300 300 301 302 303 304 305 305 305 305 305 305
296 296 298 300 298 297 298 299 298 298 298 298 298 298 298 298 298 299 299 299 299 298 296 296 296 295 295 294 294 293 293 291 291 291 291 291 292 292 292 291 291 290 290 290 290 290 290 290 290 290 290 290 290 290 290 290 290 290 290 291 291 291 292 292 293 294 295 296 297 298 299 299 299 300 300 300 300 301 302 303 304 304 304 303 303 305
296 297 298 298 297 297 298 298 297 297 297 297 297 297 297 297 297 296 296 297 297 296 295 295 295 295 294 293 292 292 292 291 291 291 291 291 292 292 291 291 291 290 290 290 290 290 290 290 290 290 290 291 291 291 291 291 291 290 291 291 290 291 291 292 292 293 294 295 296 297 298 299 299 299 300 300 300 300 301 302 302 303 303 302 303 304
296 296 297 297 297 297 297 297 296 296 296 296 296 296 297 297 297 296 295 295 295 295 294 294 294 294 293 293 292 292 292 292 292 291 291 291 292 292 291 290 290 290 290 290 290 290 290 290 290 290 291 291 291 291 291 291 291 291 291 291 291 291 291 291 291 292 293 294 295 296 297 298 298 299 300 300 300 300 301 301 301 302 302 303 303 304
296 296 296 296 298 298 297 297 297 297 297 297 297 296 296 296 296 296 296 295 295 294 294 294 293 293 292 292 292 292 291 291 292 292 291 291 292 291 291 290 290 290 290 290 290 290 290 290 290 290 291 291 291 291 291 292 292 292 292 292 292 291 291 291 291 292 292 293 294 295 296 297 298 299 299 300 300 299 299 300 301 301 302 302 303 303
296 296 296 297 298 297 297 298 297 297 296 297 297 297 296 295 296 297 296 295 295 294 294 294 293 292 292 292 292 292 292 291 292 291 291 291 291 291 290 290 290 290 290 290 290 290 290 290 290 290 291 291 291 291 292 292 292 292 292 292 292 292 292 291 291 291 292 292 293 294 295 296 297 298 299 299 299 299 298 299 300 301 301 301 302 302
Wind_Speed
1 2 2 3 4 5 5 3 3 3 3 4 3 2 2 2 3 4 2 2 2 3 4 5 8 9 6 4 9 11 11 11 11 10 10 10 10 9 11 11 11 11 8 8 9 11 13 14 17 19 18 19 21 17 13 14 15 14 15 15 13 16 17 17 18 17 15 13 11 9 9 9 8 6 6 6 5 4 4 3 3 2 2 2 3 3
1 3 3 5 5 3 3 4 5 4 3 2 2 2 2 3 4 3 1 1 2 3 2 1 5 6 1 1 7 10 11 11 11 11 10 10 10 9 12 12 11 9 6 6 7 9 12 13 16 18 19 20 19 17 17 18 18 16 16 16 15 16 18 17 18 16 13 13 12 11 11 11 10 8 8 8 7 6 6 7 6 5 5 4 4 5
2 4 6 4 4 5 4 4 4 4 3 2 2 2 2 2 4 2 1 1 1 2 2 1 3 2 2 0 5 9 10 8 8 10 9 9 9 9 11 11 10 9 8 7 7 8 11 12 14 16 18 20 19 18 19 19 20 19 17 17 17 18 18 17 16 15 13 14 13 12 12 12 11 11 10 9 8 8 8 8 8 7 6 6 6 7
3 3 4 4 7 6 4 3 4 4 2 2 2 2 2 1 1 1 1 1 1 1 1 3 3 1 3 2 4 5 5 2 3 6 6 8 10 10 10 10 9 10 10 9 8 8 9 11 13 14 15 18 19 18 19 20 21 21 21 20 20 20 18 17 16 15 15 15 13 11 11 12 11 12 12 10 9 9 9 8 7 6 6 6 6 7
3 1 2 6 5 5 4 4 5 4 2 2 3 4 3 2 4 3 1 1 0 1 1 3 3 1 2 3 4 3 2 2 2 4 6 8 9 9 9 10 10 11 11 10 10 8 8 10 12 13 15 17 18 19 20 21 22 22 21 21 20 20 19 17 17 16 16 16 15 13 13 13 12 13 12 11 10 9 8 7 6 5 5 6 6 6
4 1 5 5 3 3 4 3 5 5 3 2 5 9 6 3 3 2 0 2 2 2 2 1 2 2 2 2 5 4 4 6 3 4 8 9 9 10 10 11 11 10 10 11 11 9 9 10 11 12 14 16 17 19 22 22 21 21 19 19 20 20 19 18 18 17 17 17 17 16 15 14 13 13 11 11 11 10 7 6 5 5 6 6 6 6
1 3 3 4 3 4 4 3 5 6 4 2 4 8 7 2 1 2 2 2 2 1 2 2 1 2 2 1 2 3 7 9 5 6 8 9 11 12 11 12 12 11 11 11 11 9 9 11 12 12 14 16 17 19 21 21 20 20 18 18 20 20 20 19 19 19 19 19 18 16 14 13 13 12 12 11 11 10 8 6 6 7 7 7 6 6
3 4 2 3 4 4 4 3 6 8 6 2 2 6 8 5 4 3 2 1 0 0 1 2 2 2 3 2 0 2 6 9 9 10 9 8 10 11 11 11 12 12 12 11 11 10 10 11 13 13 13 15 18 20 20 20 20 19 18 18 19 20 20 20 21 20 20 20 17 14 12 10 10 10 11 11 11 10 9 8 8 8 8 8 7 6
3 4 4 4 3 2 4 3 7 11 4 0 2 5 6 4 3 2 2 2 1 1 3 1 3 1 2 2 1 3 5 7 8 10 10 10 10 11 11 11 11 11 11 11 10 10 10 11 11 11 11 14 17 18 18 19 19 19 18 18 18 19 20 21 21 20 20 19 16 14 13 11 9 8 9 10 9 10 10 10 10 10 9 9 7 5
1 3 4 5 2 3 3 1 7 10 3 1 5 6 6 4 3 2 1 2 1 2 3 2 4 1 3 1 1 2 2 2 3 4 6 8 9 10 10 10 10 10 10 10 9 8 9 9 9 9 10 13 14 14 15 17 18 19 19 18 17 18 20 20 20 20 20 18 16 15 13 11 11 10 9 9 9 9 10 10 11 10 10 9 7 5
1 1 1 3 3 2 3 3 2 2 2 5 5 6 6 3 2 2 2 1 1 2 1 2 4 1 3 2 1 1 1 1 3 3 2 2 5 7 9 9 10 9 9 9 8 7 7 7 8 9 10 11 12 11 12 14 17 18 18 17 17 18 18 19 19 19 18 15 14 13 11 10 11 10 10 10 10 10 10 10 10 10 9 9 7 5
2 1 1 2 1 3 5 5 2 2 3 3 2 3 4 2 2 1 2 0 3 3 1 2 3 2 3 2 1 2 2 2 4 5 6 6 6 5 6 8 9 9 8 8 7 7 7 7 8 10 10 12 13 13 13 14 16 17 17 17 16 16 17 18 18 16 14 13 12 12 10 9 9 9 9 10 10 10 10 9 9 9 8 8 7 6
2 3 2 2 1 3 3 4 3 1 1 1 2 4 3 1 1 2 1 1 3 2 2 1 1 1 1 0 2 4 5 5 4 6 7 9 8 7 5 7 7 6 7 7 7 8 8 8 10 12 13 14 15 16 16 15 16 16 16 16 16 15 14 13 11 10 9 8 9 10 9 9 8 8 8 8 8 9 9 8 8 7 7 7 7 7
2 2 1 1 2 3 5 4 3 3 3 4 4 4 4 3 2 2 1 1 3 1 2 1 1 1 1 0 3 5 6 6 6 6 6 6 9 8 5 4 6 5 6 6 6 7 7 6 7 8 8 10 13 15 16 15 15 15 14 15 15 11 9 10 10 9 9 8 8 8 9 9 8 7 8 8 7 6 7 7 7 6 6 7 8 8
3 2 2 3 1 2 6 5 3 4 4 3 1 2 4 4 3 3 3 3 3 1 2 1 2 2 3 1 2 4 5 5 5 6 5 3 3 3 1 4 6 6 6 6 6 5 5 6 7 8 10 10 5 4 10 12 11 12 12 13 10 14 15 12 10 11 12 12 11 10 10 8 5 6 7 7 5 3 5 7 7 6 5 7 8 8
1 3 2 1 1 2 4 2 3 4 4 1 1 2 2 3 3 1 0 1 1 1 1 2 2 1 1 0 2 3 3 4 6 7 6 5 4 5 7 7 8 8 8 8 8 8 8 8 11 12 8 9 14 11 5 7 8 9 10 9 16 22 14 10 12 16 16 16 16 14 12 10 8 7 5 3 3 5 7 8 7 6 6 8 9 8
1 2 1 1 0 0 2 1 2 0 2 3 2 4 1 0 3 3 2 2 1 2 2 1 0 0 1 1 1 2 1 3 6 6 6 6 6 8 8 8 9 10 10 9 9 9 8 8 9 11 10 2 11 13 7 3 5 8 8 13 24 18 10 17 19 19 16 15 19 17 14 15 13 8 6 7 8 8 8 7 6 7 7 9 9 8
2 1 1 1 2 2 2 2 4 3 1 3 3 5 4 2 2 2 2 2 0 3 2 1 0 1 3 3 1 1 1 4 5 5 6 5 6 8 8 9 11 11 10 9 9 9 9 10 7 6 8 5 4 8 4 2 3 6 8 15 21 13 17 20 19 17 15 17 21 21 20 18 13 8 7 10 10 8 7 7 7 8 8 8 9 8
1 2 1 0 1 2 2 2 4 3 3 1 2 4 3 2 2 2 2 3 4 3 2 2 1 2 2 1 2 4 5 6 5 5 6 6 7 8 7 8 9 9 7 6 6 6 6 9 7 5 8 8 2 0 1 1 3 6 7 12 17 15 16 17 19 20 21 22 23 24 23 18 12 10 10 12 12 10 9 8 9 10 9 8 8 7
1 2 1 0 1 1 2 1 3 3 4 3 3 3 1 1 2 2 1 2 4 4 2 2 2 2 1 2 5 7 8 8 5 4 5 5 6 6 4 4 4 5 5 4 5 6 5 6 8 9 11 9 5 4 4 3 4 6 8 11 14 14 14 16 20 22 22 22 24 25 24 18 13 14 15 13 12 11 11 10 10 12 11 9 8 7
1 1 2 0 1 2 1 1 2 2 2 2 3 4 1 1 1 1 1 1 1 3 3 3 3 2 2 3 6 8 8 7 5 2 4 5 5 5 5 4 5 5 6 6 6 7 7 6 8 12 14 12 9 8 6 6 7 8 8 10 12 14 15 17 20 21 21 23 25 25 23 19 16 17 16 13 12 13 14 12 11 13 12 9 8 8
1 1 2 0 0 1 1 2 2 2 1 2 2 3 3 3 3 3 3 1 1 1 2 3 4 2 2 3 5 7 8 7 4 1 5 6 6 7 6 6 7 7 7 8 8 8 7 6 9 13 13 11 10 9 8 8 9 9 8 8 11 13 14 16 18 20 21 22 24 23 19 17 16 17 16 14 14 16 16 13 11 13 12 10 9 9
2 2 2 1 0 1 1 1 0 0 0 1 1 1 2 2 2 3 4 3 1 1 1 1 2 2 3 5 5 5 6 5 2 3 7 7 7 7 7 7 8 7 6 6 7 8 8 10 13 13 11 8 7 7 6 6 7 8 8 9 11 12 14 15 16 18 20 21 22 20 16 15 16 17 15 14 15 18 17 13 10 10 11 10 10 10
1 1 2 1 0 1 1 1 1 2 1 2 3 3 0 0 1 2 1 2 3 3 2 2 3 2 3 5 5 5 5 5 5 5 8 8 7 7 8 7 7 7 6 7 8 9 11 14 15 13 11 10 9 6 4 5 5 7 8 9 10 11 12 13 14 16 18 18 19 17 15 14 15 16 16 15 16 18 17 13 10 9 9 11 11 11
0 1 1 3 2 1 1 2 1 1 1 1 2 2 2 2 3 3 2 1 2 2 2 3 3 2 3 4 6 7 7 7 8 7 7 8 7 7 7 7 7 7 9 10 11 11 13 14 15 13 11 11 10 9 7 6 5 4 4 5 6 7 9 10 11 13 15 17 18 17 16 14 14 16 18 17 16 17 16 13 11 10 9 11 12 11
1 1 1 2 5 5 4 2 1 1 1 1 2 3 4 2 1 2 3 3 3 2 2 2 2 4 2 5 8 9 8 8 8 8 8 8 8 7 7 7 7 8 10 11 11 11 11 11 12 11 9 10 12 13 13 11 8 5 3 1 2 3 5 7 9 10 12 15 17 18 18 17 16 16 17 17 16 17 15 13 12 11 10 11 12 12
3 2 4 3 1 2 2 1 2 1 1 1 2 4 5 4 4 1 2 3 3 4 3 1 2 6 3 7 8 8 8 8 8 8 8 8 8 8 7 7 8 8 9 10 10 10 10 10 11 11 11 13 15 16 16 15 11 7 4 2 1 2 4 5 7 9 11 13 15 17 18 18 17 16 17 16 16 16 16 15 13 13 12 12 12 12
4 3 4 5 7 5 3 2 3 3 4 3 2 4 5 5 4 1 2 2 2 4 3 0 3 5 3 6 6 7 8 7 8 8 8 7 8 8 8 9 11 11 12 12 11 11 12 11 11 13 15 16 17 18 19 18 15 11 6 3 1 2 4 5 6 8 10 12 13 15 16 16 16 15 15 14 15 16 16 16 15 15 15 14 14 13
5 2 2 3 6 7 5 5 6 7 6 4 4 4 5 7 6 4 3 3 2 1 3 5 6 6 4 4 5 6 6 7 8 8 7 8 9 10 11 12 13 13 14 14 13 12 12 12 12 14 16 17 17 18 19 20 19 16 11 6 2 1 3 4 5 7 9 11 12 14 15 15 14 13 13 13 14 15 15 15 16 17 18 17 17 18
4 2 2 4 4 5 5 5 4 6 5 5 6 6 5 6 8 7 5 4 5 6 6 10 12 9 4 3 4 5 4 5 7 7 9 10 11 12 13 13 13 14 14 14 13 13 12 13 14 15 17 17 17 17 17 18 18 17 15 11 6 3 1 3 5 7 8 9 11 12 13 13 12 12 13 13 13 14 15 15 17 18 20 20 21 22
2 3 4 4 3 1 3 5 5 5 6 5 5 5 4 5 6 6 5 5 7 8 7 9 12 8 3 2 4 3 3 5 9 11 11 10 10 12 14 14 14 13 13 13 13 13 13 13 15 16 17 17 16 15 15 15 16 18 20 18 15 10 5 3 3 5 8 9 11 12 12 12 12 13 14 14 15 15 16 17 19 20 21 22 22 22
2 4 3 3 3 3 1 2 2 5 6 4 2 1 3 3 2 3 3 2 2 6 8 7 7 5 4 4 5 5 6 9 12 11 10 9 10 13 14 14 13 12 12 12 12 12 12 13 14 16 16 16 16 15 15 14 16 19 21 22 21 18 12 8 6 5 6 8 10 11 11 12 12 13 15 15 15 15 15 17 17 17 19 22 22 21
2 5 5 4 4 3 2 4 4 3 2 3 3 1 2 2 3 3 4 4 3 2 5 3 5 7 6 5 6 8 10 11 10 8 8 9 10 12 12 12 12 11 11 11 11 12 12 12 13 14 15 15 15 16 17 18 18 19 20 21 22 21 18 15 12 9 6 6 8 9 10 11 11 12 14 13 12 11 11 12 12 12 14 18 19 18
2 5 5 3 3 3 4 5 5 3 3 1 2 3 2 1 4 5 5 5 4 2 2 5 8 9 8 6 8 10 9 9 8 7 7 7 8 10 11 11 11 11 11 11 11 11 12 13 14 16 17 17 18 19 21 21 20 19 19 19 19 19 19 18 16 15 12 8 6 7 8 9 10 11 13 13 12 11 10 9 9 10 12 14 14 14
3 3 2 1 2 4 5 5 5 4 2 3 5 2 2 4 9 12 11 8 7 6 8 11 11 9 9 8 8 10 9 8 8 8 8 8 7 8 10 10 10 10 10 10 10 11 13 14 14 16 17 18 20 21 22 22 21 19 17 17 18 18 16 14 14 15 14 13 9 6 6 7 8 9 10 12 13 14 14 12 11 12 14 14 13 12
3 3 2 2 2 3 5 5 4 1 2 4 4 3 5 6 6 9 10 8 7 4 6 11 11 9 9 9 8 8 8 7 8 8 8 8 8 8 9 9 9 9 9 9 9 11 12 12 13 13 15 17 17 19 20 21 21 19 17 16 16 17 15 13 12 12 12 13 12 10 8 6 5 6 7 8 10 13 14 13 13 13 14 15 13 12
2 2 2 2 1 2 3 2 0 1 2 1 3 3 2 2 1 2 4 5 4 4 2 9 11 9 8 7 6 4 2 3 6 7 7 8 8 8 8 9 8 9 9 9 9 10 10 12 13 13 15 16 16 17 19 19 18 18 17 16 16 16 14 13 12 11 11 12 12 12 11 8 5 5 5 5 6 9 10 10 10 10 10 11 11 11
3 1 2 2 1 1 2 2 1 1 2 3 4 1 1 1 1 1 2 4 2 2 1 5 8 7 6 4 4 2 1 1 4 4 6 8 8 7 8 9 9 9 9 9 10 10 11 13 13 13 15 16 16 17 19 18 17 15 14 15 16 15 13 12 11 12 12 13 13 13 12 10 7 5 6 6 7 8 9 9 9 9 9 10 10 10
5 3 2 2 2 1 2 3 3 2 1 1 1 1 3 1 2 2 2 4 2 0 0 4 5 4 3 2 3 3 2 1 3 3 4 6 7 7 7 8 9 9 9 10 11 11 12 14 15 15 17 18 18 20 20 19 18 14 11 12 14 14 13 12 13 14 14 14 15 14 12 11 9 7 6 7 8 9 11 11 10 10 9 10 11 11
5 3 2 2 2 1 1 1 1 1 1 2 2 4 4 1 3 4 4 4 4 2 1 4 5 4 2 2 2 2 1 0 2 3 4 5 5 6 7 8 9 10 10 11 12 12 12 14 15 16 17 17 19 21 21 21 20 16 12 12 13 12 12 13 15 16 16 16 16 15 14 13 11 10 9 8 9 11 13 12 11 11 11 11 13 13
3 3 2 2 2 1 1 1 0 0 1 1 3 5 4 1 4 4 2 3 5 4 3 3 5 4 3 3 2 2 3 3 3 3 4 4 5 6 7 7 7 8 9 10 11 12 12 12 13 14 15 17 19 21 21 21 20 17 15 14 13 12 13 15 16 16 17 17 17 16 15 14 13 13 12 11 11 13 14 13 13 13 13 13 14 14
2 2 1 2 2 1 1 1 0 0 1 2 4 4 2 2 3 2 2 2 4 5 4 3 4 4 4 5 5 3 3 3 3 4 4 5 5 6 7 8 9 9 10 10 11 13 13 13 13 13 15 18 20 20 21 21 19 17 17 16 15 15 17 18 17 17 17 17 17 17 16 15 14 13 14 13 12 13 15 16 16 16 15 15 16 16
2 1 1 1 1 1 2 2 1 1 2 4 4 2 1 1 2 4 4 3 3 5 4 3 3 3 3 4 4 3 3 3 4 4 4 4 5 6 7 9 10 11 11 12 13 14 14 14 14 14 15 17 19 19 18 18 17 17 17 18 19 20 21 20 19 18 19 19 18 17 17 16 15 14 13 13 12 12 15 18 19 19 19 19 19 20
3 2 1 1 0 0 1 2 1 0 3 4 2 2 4 4 3 4 4 4 3 3 3 3 4 3 2 3 3 3 3 3 3 4 4 5 6 7 8 9 10 11 11 12 13 13 13 13 14 15 16 16 17 17 15 14 14 15 17 20 22 23 23 23 22 21 20 19 19 19 18 17 16 16 15 14 12 11 13 18 21 21 22 22 22 23
3 2 1 2 2 2 2 3 2 1 3 4 4 6 7 6 4 3 4 5 4 2 2 3 4 4 3 3 3 3 4 4 3 4 4 5 5 6 7 8 9 9 10 11 12 12 13 13 13 15 16 15 15 14 13 12 13 15 18 20 22 22 22 22 22 21 20 19 19 19 19 18 17 17 17 17 16 13 12 14 19 21 22 22 23 24
2 1 1 2 4 4 5 4 2 2 4 6 6 6 6 6 5 4 5 4 3 2 2 2 3 4 3 3 3 3 3 2 2 2 3 4 5 6 7 7 8 9 10 10 11 12 13 13 13 14 15 15 15 14 13 13 13 15 18 19 20 21 21 20 19 19 20 20 19 19 19 19 18 18 17 17 18 17 15 14 16 17 18 17 17 20
1 0 2 3 4 3 3 2 2 2 3 3 4 4 4 4 4 3 3 3 2 3 3 3 3 3 3 4 4 3 2 2 2 3 3 3 5 6 7 7 8 9 10 11 12 14 14 15 15 15 16 17 16 15 15 15 15 16 17 18 18 19 19 19 19 19 20 20 20 19 18 17 18 19 18 17 17 17 18 19 17 16 19 21 19 17
1 1 2 3 2 1 3 4 3 1 1 1 1 2 2 3 4 4 3 3 3 4 4 3 3 3 3 3 3 3 4 3 4 5 5 5 6 7 8 9 10 12 12 13 14 15 15 15 16 17 18 19 18 18 19 19 19 18 19 19 19 18 19 19 19 19 20 20 19 19 18 17 18 19 18 17 17 16 16 20 21 19 21 24 22 18
1 0 1 2 3 3 3 3 3 2 2 2 2 1 1 2 4 5 4 4 4 4 4 4 4 4 3 3 3 4 5 5 5 5 6 6 7 8 10 12 13 14 14 14 14 14 14 15 15 17 18 19 20 20 20 20 20 20 20 20 20 19 19 20 20 20 20 20 18 19 19 19 19 19 17 16 16 15 14 17 22 23 23 22 20 19
1 2 3 3 4 3 2 5 6 3 2 3 4 3 3 2 3 4 4 4 3 3 3 3 3 2 2 2 2 3 5 6 6 7 7 8 9 11 13 14 15 15 15 15 15 14 14 14 15 17 19 19 19 19 20 20 21 21 21 21 20 19 20 20 20 21 21 19 18 18 19 18 18 19 18 17 17 16 14 14 17 22 26 27 25 23
0 2 2 2 3 1 2 6 7 1 2 2 4 5 4 2 2 3 3 3 4 3 3 3 2 1 1 1 2 3 5 7 7 8 9 10 12 13 13 14 15 16 16 16 15 15 15 16 17 18 19 19 19 19 20 21 22 22 22 21 21 21 21 20 21 21 21 20 19 19 18 17 17 17 17 17 17 17 15 13 12 14 18 22 24 26
Wind_Direction
185 171 178 199 196 195 200 187 133 115 116 126 130 161 202 242 258 251 242 298 262 238 240 212 220 232 218 183 186 184 186 195 195 191 196 199 194 195 204 211 211 213 209 186 183 185 188 193 195 197 200 202 204 205 198 190 189 188 190 187 185 195 201 201 200 199 196 189 187 189 185 184 183 175 153 138 139 131 126 131 125 110 87 68 71 63
198 184 213 221 196 178 173 145 120 115 110 123 154 199 231 224 252 262 147 328 296 240 244 154 218 233 244 204 187 183 192 199 200 198 199 200 199 203 210 214 214 215 203 168 172 183 188 191 192 195 201 204 204 205 203 198 197 195 193 192 191 196 200 202 202 196 194 193 190 186 181 177 168 155 143 132 129 121 116 118 119 119 110 104 93 83
183 204 230 213 144 104 104 132 135 124 121 128 156 230 235 207 256 279 109 7 33 221 254 134 202 236 32 6 184 188 201 205 207 208 206 201 202 211 213 213 212 213 210 196 184 185 190 188 187 192 199 205 205 204 204 203 204 200 196 198 200 200 200 201 201 196 198 199 195 186 173 168 157 146 142 134 129 123 121 118 113 114 112 113 107 99
178 227 237 163 139 127 106 127 135 117 142 174 165 216 234 165 230 215 119 33 38 294 267 145 148 47 55 119 171 199 202 179 196 202 202 206 211 219 219 214 211 212 215 211 197 187 192 189 186 190 196 201 203 203 203 204 205 201 198 202 205 205 203 201 200 200 203 199 191 180 165 160 150 143 142 136 134 131 130 126 116 113 115 118 117 110
213 237 112 123 144 152 122 138 160 157 188 212 209 216 227 208 212 228 87 67 232 25 70 131 140 115 87 136 179 203 179 160 156 173 192 206 218 227 224 218 216 218 219 216 209 194 190 192 190 192 195 197 200 201 203 204 203 201 199 203 206 206 204 201 200 202 204 196 182 168 154 148 139 140 144 141 140 141 139 135 126 123 124 127 130 122
241 159 134 132 132 156 144 167 192 188 186 217 220 216 221 204 199 250 276 158 187 136 67 351 179 155 80 133 183 186 205 212 188 194 208 201 209 222 224 222 219 222 224 220 216 199 187 191 190 192 195 196 198 202 205 205 203 202 201 202 205 205 204 201 202 206 206 195 182 168 157 150 143 142 150 150 147 147 147 144 139 137 132 132 136 129
229 120 144 149 138 168 180 212 207 188 180 203 213 204 202 177 142 235 222 181 198 128 56 329 263 158 105 109 173 183 210 217 209 215 216 201 205 216 222 223 219 219 221 220 216 200 187 188 188 192 195 197 200 204 205 203 202 203 202 203 204 204 204 202 204 207 203 195 188 181 174 167 158 151 154 154 148 147 149 144 140 139 133 130 134 129
153 123 108 123 121 158 191 225 198 181 180 185 175 168 172 186 207 203 181 134 19 57 104 345 336 161 144 124 173 202 200 215 226 225 219 208 206 212 216 215 213 213 212 212 209 197 190 190 189 191 192 198 205 206 204 201 201 203 204 207 207 205 206 205 205 205 201 196 193 189 186 179 168 157 150 146 144 144 143 138 138 137 129 124 125 121
145 174 176 151 123 174 207 217 176 176 192 256 128 140 150 167 179 167 153 109 51 241 182 57 359 187 154 118 181 198 190 204 222 226 223 217 208 208 213 211 206 207 206 206 203 192 190 190 188 186 187 198 207 207 204 200 200 204 207 209 208 206 204 202 202 200 198 197 196 193 189 177 164 153 145 140 139 140 139 137 140 140 131 123 120 112
154 216 181 159 182 220 218 188 169 177 198 143 131 104 91 88 81 81 97 111 91 237 191 36 349 215 169 150 175 175 174 201 241 236 223 224 221 212 210 210 206 201 200 204 201 190 184 184 181 178 182 195 205 207 202 198 199 202 206 207 204 202 199 197 197 196 197 198 197 195 188 170 157 153 152 145 141 142 141 141 142 140 133 125 121 113
359 340 134 180 221 190 115 75 144 170 120 149 139 97 88 68 41 52 36 56 178 212 169 8 338 280 187 185 182 169 111 333 309 305 289 273 255 229 214 210 206 201 199 197 189 173 163 165 169 170 174 187 198 201 197 196 198 200 201 201 199 197 195 194 194 196 197 196 195 195 186 171 163 164 163 155 151 152 149 148 146 141 135 126 120 117
335 273 209 235 197 129 110 90 45 22 106 152 140 114 125 72 31 88 33 320 203 193 105 21 330 271 209 171 138 295 324 323 288 292 308 312 298 262 227 213 205 202 196 185 173 157 150 154 164 171 171 176 188 192 191 195 196 196 198 195 190 191 193 193 194 195 196 194 195 196 189 179 173 174 173 165 161 160 157 157 153 146 137 127 123 126
273 226 267 314 195 172 144 108 92 68 125 154 128 139 161 143 149 195 206 206 221 216 80 37 302 236 237 267 300 309 332 335 303 291 295 296 291 277 247 218 206 195 183 174 163 154 157 164 172 179 176 175 185 189 191 194 193 194 194 190 190 191 188 182 176 174 175 180 189 191 190 188 181 178 178 168 161 161 165 168 164 156 142 132 136 140
236 240 293 250 209 192 183 165 154 171 191 183 159 161 175 153 153 193 184 218 253 229 89 40 261 191 159 278 284 303 333 336 323 309 297 286 280 282 278 213 183 166 165 165 155 156 162 161 168 181 182 181 183 185 187 190 192 192 190 193 192 172 139 131 133 141 149 157 171 191 200 196 187 188 184 164 145 150 173 181 183 176 150 138 148 150
209 233 202 193 177 165 190 196 152 139 159 176 148 155 176 168 175 207 200 199 214 170 91 137 201 184 147 131 300 306 324 336 348 345 336 328 299 295 16 129 136 125 122 123 115 110 100 87 72 42 14 355 331 210 188 186 190 188 190 198 169 116 107 121 139 157 164 163 172 194 199 193 202 210 191 161 133 155 198 194 195 189 154 143 152 153
203 253 252 272 329 175 201 193 104 116 134 127 71 147 184 189 157 141 189 169 187 154 130 183 215 298 117 93 318 302 314 354 16 12 7 22 48 76 88 99 108 110 110 108 102 90 84 86 88 85 59 346 319 301 242 191 190 191 195 169 114 105 121 171 196 193 183 178 187 198 192 184 202 212 204 208 205 205 203 196 198 192 158 145 151 151
154 254 294 345 110 174 269 193 114 212 161 134 174 177 178 71 118 117 115 52 9 202 181 145 209 219 164 156 225 217 161 48 35 26 25 34 64 83 89 99 104 109 114 112 110 105 93 84 84 99 114 181 276 281 270 213 197 207 198 132 113 117 188 216 209 194 182 190 202 208 201 190 196 203 215 237 225 205 199 196 199 194 164 147 149 151
198 221 342 25 122 54 314 153 88 22 92 143 179 166 136 71 78 113 148 98 133 208 189 88 104 206 184 162 142 174 91 56 49 55 54 50 77 90 95 111 118 123 129 126 124 122 110 101 87 59 69 87 240 254 258 242 216 216 196 145 138 173 223 213 194 184 195 212 211 208 203 196 197 198 210 229 223 208 204 196 191 193 179 152 146 152
201 226 322 296 186 24 340 161 113 59 24 40 148 135 135 187 172 154 161 157 179 197 176 136 192 249 203 138 4 341 350 4 18 53 65 61 83 95 101 119 127 127 125 119 117 114 102 106 110 83 74 81 92 61 69 177 211 207 195 168 164 187 207 197 190 197 211 219 212 205 201 200 205 201 204 221 220 209 206 192 179 186 186 163 150 152
121 233 233 146 289 338 357 222 176 130 55 52 114 113 18 284 175 172 154 168 188 189 161 152 193 220 175 359 327 312 328 343 350 39 69 73 86 91 84 84 76 77 83 83 96 93 74 80 94 95 92 89 83 75 88 122 165 184 189 187 183 186 190 191 195 202 210 214 211 207 204 207 214 209 206 213 214 212 212 200 183 186 187 171 159 156
81 213 213 5 323 233 186 341 245 187 117 117 153 156 143 66 111 175 98 43 199 177 159 172 194 181 84 359 308 297 309 322 324 33 84 78 76 67 48 42 40 56 76 78 79 78 67 67 82 92 94 97 104 110 122 135 148 164 175 187 193 193 192 194 199 204 210 214 211 207 206 210 211 208 207 209 212 216 217 210 197 194 190 175 167 168
124 169 190 170 8 186 79 21 315 265 220 175 179 177 157 129 147 168 164 163 333 160 164 182 190 158 50 352 313 303 304 308 303 150 99 76 70 66 50 44 43 46 58 70 77 80 78 69 63 72 83 98 110 116 129 138 142 151 161 183 195 198 200 202 205 206 208 211 210 206 207 211 210 206 206 210 213 217 220 217 208 202 196 186 180 179
130 117 122 88 21 225 335 3 98 343 117 122 72 118 144 138 150 176 190 179 138 137 141 164 202 154 48 357 334 322 320 330 337 127 105 82 72 71 61 52 55 62 67 75 82 81 79 72 63 59 61 71 89 104 118 124 132 147 161 181 195 200 207 212 214 211 210 210 211 211 212 214 214 211 213 217 216 218 222 221 215 212 207 200 195 191
122 84 89 93 311 298 299 213 124 74 101 98 51 49 107 196 99 128 166 154 152 159 145 168 204 149 56 5 351 352 3 31 46 71 92 91 79 70 67 62 65 75 73 66 70 70 67 66 63 58 51 51 61 72 90 108 124 147 164 180 194 203 211 218 221 220 218 217 216 219 223 223 223 223 225 224 220 221 224 223 223 225 219 214 209 203
261 23 94 126 136 144 169 198 193 117 62 63 59 19 344 44 94 114 96 116 176 179 166 193 192 127 62 17 18 18 26 48 46 45 69 82 78 72 69 64 59 59 57 54 56 59 58 58 57 53 49 50 54 56 61 74 87 113 152 183 201 211 216 221 227 228 227 226 225 227 230 232 233 233 231 229 227 227 227 226 228 230 226 221 214 210
69 37 359 171 175 179 177 179 189 170 108 66 59 19 8 21 71 132 130 161 196 174 161 218 171 127 83 22 23 19 23 41 40 41 59 66 68 69 64 58 54 54 56 55 55 58 58 59 57 54 52 53 52 49 49 51 53 59 75 137 228 244 238 231 234 237 236 236 236 236 238 238 235 231 228 227 230 232 230 229 231 231 226 221 214 210
93 61 5 9 99 145 143 83 340 300 111 61 28 20 13 342 313 315 137 168 176 148 152 300 114 136 99 12 15 20 27 39 37 37 53 61 64 67 64 62 60 59 61 58 56 60 60 59 58 53 51 52 49 47 48 48 46 45 47 48 346 291 273 253 241 240 242 244 245 245 245 243 237 231 227 228 234 238 234 230 232 235 230 222 216 211
96 66 360 26 45 46 64 71 45 60 78 66 21 3 3 351 334 353 102 118 141 149 170 209 102 124 79 14 20 29 32 48 53 47 54 61 64 68 66 63 61 58 58 56 53 55 56 55 52 48 47 48 47 46 49 52 54 52 47 36 347 279 269 263 252 244 247 249 251 253 254 251 244 234 226 228 235 238 233 229 231 236 232 224 219 213
109 83 338 46 52 48 54 61 71 82 86 79 49 20 11 16 25 50 44 349 294 173 149 129 108 101 87 52 40 37 41 61 65 59 62 66 68 69 65 61 59 56 55 54 51 51 52 50 48 47 46 46 45 45 46 49 54 56 54 52 40 291 267 264 260 257 258 259 261 264 264 261 252 234 222 222 228 229 227 227 230 230 227 224 222 218
117 128 149 114 60 25 12 9 43 75 81 71 47 29 28 49 59 68 59 37 56 74 97 113 105 94 91 77 54 53 62 75 74 67 65 65 65 67 66 62 59 57 55 54 51 50 49 47 46 45 45 44 42 43 44 44 48 53 54 53 49 40 353 289 277 276 276 274 273 273 271 267 255 234 223 223 228 230 229 228 227 223 218 218 217 217
97 157 167 129 94 325 336 352 359 37 61 65 57 45 35 44 61 78 85 77 77 82 92 100 98 95 86 64 74 86 90 81 75 67 62 60 61 67 68 62 59 57 55 54 52 51 50 47 45 44 43 42 39 40 41 39 43 49 52 51 48 44 39 16 333 300 292 287 282 279 274 264 251 237 234 235 237 236 233 229 226 219 215 215 217 219
76 126 155 129 147 200 182 57 23 25 30 3 333 59 38 24 50 79 79 51 93 127 129 113 100 111 121 108 99 95 85 78 72 66 64 60 57 63 66 62 58 55 51 50 48 46 46 44 43 41 40 40 37 37 35 33 38 44 46 48 49 47 45 40 22 342 314 301 291 288 283 270 257 248 247 250 249 246 241 236 233 225 222 225 227 230
111 141 156 164 169 170 109 113 113 77 27 301 297 354 61 86 123 105 61 21 354 154 153 139 123 128 133 129 108 88 78 73 68 61 61 59 57 59 60 58 56 50 45 44 41 38 36 34 35 34 34 35 33 34 35 34 36 37 38 43 45 46 49 47 41 28 1 326 302 296 292 283 273 265 260 260 258 256 251 244 241 238 237 238 237 235
129 143 148 163 163 140 114 114 122 152 193 256 333 296 273 108 112 103 72 32 15 40 105 103 117 130 136 130 110 95 84 75 70 60 50 49 54 58 57 54 51 47 44 41 38 35 30 26 26 26 27 28 29 31 35 34 32 31 31 34 37 41 46 48 47 46 37 19 345 312 299 290 284 278 271 266 262 262 260 253 249 251 252 249 241 231
121 119 114 91 102 123 127 128 142 181 229 347 347 292 202 125 107 97 78 50 44 80 106 111 120 131 130 119 111 104 98 88 78 66 52 45 45 54 58 53 46 43 39 34 31 28 25 21 19 19 20 24 26 28 29 27 25 23 23 26 28 31 35 37 38 42 41 37 30 6 332 308 295 286 278 269 262 260 260 260 259 257 255 251 241 228
135 129 108 83 77 127 152 161 171 218 339 10 34 89 127 132 121 99 78 51 30 39 101 116 120 126 124 120 116 111 108 102 86 67 53 46 41 46 53 48 42 39 36 30 23 19 17 14 11 10 13 19 23 23 21 20 19 17 15 15 17 20 23 24 24 27 26 24 23 18 4 341 315 299 287 270 256 251 251 252 250 248 247 245 239 231
127 136 117 91 59 130 143 151 134 337 315 134 117 117 131 135 132 100 89 73 28 355 80 121 127 132 134 133 132 123 124 115 91 64 44 39 36 40 47 44 39 36 33 28 21 16 14 12 10 10 13 18 22 20 15 13 12 12 11 7 5 7 9 11 13 12 5 360 1 2 356 346 326 302 287 270 248 238 235 233 229 225 224 225 222 219
53 58 140 143 129 105 127 136 142 209 231 180 145 111 20 33 269 244 125 106 69 350 62 130 135 142 154 166 166 168 223 137 96 65 34 29 26 29 39 39 35 33 29 24 19 15 12 12 11 11 11 13 15 12 9 7 5 5 5 2 359 357 356 355 351 346 342 341 344 347 349 344 330 305 280 261 243 227 218 214 211 205 202 202 202 200
54 40 71 114 122 148 161 169 179 190 220 68 105 359 336 314 224 215 162 137 129 45 144 136 128 127 146 168 156 160 194 193 117 80 26 19 22 25 28 26 24 26 24 22 19 13 8 8 8 7 8 8 5 1 359 358 358 358 357 353 349 347 347 346 341 334 328 324 323 326 331 332 328 317 294 267 244 222 212 208 204 196 189 186 184 179
47 34 44 96 115 122 139 157 215 196 37 7 330 314 323 335 162 187 193 163 144 154 160 124 113 100 89 111 135 144 157 104 98 75 20 10 25 32 27 20 16 16 16 16 15 9 4 6 5 4 3 1 357 353 351 350 350 350 347 342 338 336 339 339 338 334 328 320 315 313 314 316 315 315 309 285 251 225 211 207 205 197 186 181 178 171
41 31 43 111 111 97 139 134 340 225 154 304 303 314 325 198 180 200 198 132 126 143 146 109 103 90 63 64 80 81 63 50 57 54 28 20 28 29 23 16 11 10 9 7 5 2 358 359 359 356 352 348 346 346 344 344 344 342 338 335 331 329 330 329 328 326 324 321 316 311 309 307 304 302 302 294 265 234 217 210 207 199 189 184 180 171
35 40 52 89 93 88 133 124 226 192 101 342 309 306 296 216 192 164 107 101 120 130 128 105 102 97 75 70 74 75 67 56 48 42 34 29 25 15 8 5 2 2 1 357 359 359 354 348 346 346 342 339 338 337 336 336 335 332 330 327 323 321 323 323 319 316 314 313 310 307 306 304 300 294 293 294 279 246 225 214 206 199 192 186 179 171
19 34 79 86 95 129 124 124 190 176 53 350 308 275 353 26 126 118 114 120 120 119 120 110 101 103 96 86 85 84 78 71 59 40 28 26 20 6 1 1 357 353 353 351 352 353 349 341 337 336 334 333 332 331 332 329 325 321 317 311 308 311 314 315 314 311 308 304 302 301 299 298 297 290 280 282 285 264 235 217 204 197 194 187 179 174
12 1 134 124 8 258 144 126 125 357 354 341 325 105 75 76 115 129 119 118 119 117 116 105 96 101 98 86 81 81 75 66 50 30 15 10 7 358 353 354 351 348 347 344 342 343 341 334 329 326 325 325 325 325 325 321 315 309 303 298 298 301 303 304 306 307 304 301 298 295 293 293 294 289 275 266 274 275 250 225 209 199 194 190 183 178
31 23 60 76 55 41 65 86 86 26 8 26 59 85 87 87 89 84 87 96 102 104 105 92 90 92 87 70 62 62 57 44 30 25 9 354 348 345 342 342 340 338 335 332 331 333 331 324 318 316 314 315 316 316 314 311 304 296 293 295 298 299 298 299 300 301 300 299 296 293 291 289 288 288 283 269 260 259 248 228 213 201 194 192 188 182
59 32 28 80 105 88 62 56 63 62 51 44 49 61 70 72 65 62 74 81 75 79 83 70 77 85 80 73 69 64 64 49 13 4 355 336 328 330 331 330 329 329 327 326 326 328 325 320 316 313 311 312 313 311 308 304 296 289 289 294 297 297 296 295 293 292 291 291 291 290 289 287 283 283 286 281 266 253 237 223 216 208 201 199 198 191
41 5 73 106 127 114 101 130 133 74 62 49 46 54 57 56 49 42 53 63 57 60 64 63 75 81 70 66 65 52 52 55 3 344 343 332 327 329 330 331 331 330 328 326 328 328 326 322 318 316 314 314 314 313 309 306 299 293 293 294 294 294 293 290 285 282 280 279 281 282 282 282 280 277 280 284 281 265 242 228 225 221 213 207 205 202
19 36 98 111 102 58 112 142 144 75 47 36 67 87 99 95 81 62 61 77 77 66 62 61 66 67 54 51 48 20 3 5 357 345 339 332 329 330 332 334 333 330 328 326 326 325 323 319 316 315 314 314 314 313 310 306 303 299 297 295 293 291 288 284 281 278 275 272 272 272 272 273 275 274 273 276 281 278 256 236 229 228 223 214 203 194
328 240 121 115 107 89 98 137 158 158 179 203 195 149 131 115 100 86 81 89 92 85 80 70 62 60 48 39 29 357 343 343 347 342 333 325 327 332 332 331 329 325 323 322 320 319 317 314 313 313 311 311 311 310 307 304 303 301 298 295 293 289 284 281 280 278 275 271 267 264 264 266 267 268 268 269 271 276 269 248 234 229 229 225 212 202
241 151 132 127 133 136 157 169 170 164 167 192 189 159 130 113 102 97 97 106 115 116 112 99 83 67 45 24 358 334 330 328 330 331 324 320 324 327 325 323 322 319 319 320 319 318 317 314 312 309 306 305 305 303 301 299 299 298 296 294 290 286 281 279 279 277 274 269 264 259 257 257 258 259 261 263 263 264 268 263 244 231 229 230 229 230
202 146 156 165 152 156 183 169 166 136 51 135 161 148 136 127 104 103 109 121 131 140 143 127 107 45 359 343 308 309 315 315 319 323 320 318 322 322 321 322 322 321 322 322 322 320 318 316 313 308 303 303 302 300 298 297 295 294 293 291 287 282 277 274 273 273 272 269 265 261 256 253 252 252 254 257 257 253 249 246 238 229 231 235 236 238